Richmond, VA

7:28 PM EST on December 07, 2019 (GMT -0500)
Richmond International

Weather History for KRIC - October, 2019

Change the Weather History Date:

Thursday, October 17, 2019

  Actual Average Record
Temperature  
Mean Temperature 56 °F 59 °F  
Max Temperature 64 °F 71 °F 86 °F (1925)
Min Temperature 48 °F 48 °F 32 °F (1935)
Degree Days  
Heating Degree Days 9 7  
Month to date heating degree days 36 83  
Since 1 July heating degree days 36 112  
Cooling Degree Days 0 1  
Month to date cooling degree days 70 30  
Year to date cooling degree days 2040 1534  
Growing Degree Days 6 (Base 50)    
Moisture  
Dew Point 37 °F    
Average Humidity 54    
Maximum Humidity 68    
Minimum Humidity 31    
Precipitation  
Precipitation 0.00 in 0.09 in 3.09 in (1932)
Month to date precipitation 2.02 1.63  
Year to date precipitation 35.17 35.75  
Snow  
Snow 0.00 in 0.00 in 0.00 in (2002)
Month to date snowfall 0.0 0.0  
Since 1 July snowfall 0.0 0.0  
Snow Depth 0.00 in    
Sea Level Pressure  
Sea Level Pressure 29.75 in    
Wind  
Wind Speed 11 mph ()    
Max Wind Speed 24 mph    
Max Gust Speed 29 mph    
Visibility 10.0 miles    
Events      
T = Trace of Precipitation, MM = Missing Value Source: Averaged Metar Reports

Daily Weather History Graph

Daily Weather History Graph

Search for Another Location

Airport or City:

Astronomy

Oct. 17, 2019 Rise Set
Actual Time 7:19 AM EDT 6:29 PM EDT
Civil Twilight 6:52 AM EDT 6:56 PM EDT
Nautical Twilight 6:22 AM EDT 7:26 PM EDT
Astronomical Twilight 5:51 AM EDT 7:56 PM EDT
Moon 9:03 PM EDT (10/17) 10:45 AM EDT (10/17)
Length of Visible Light 12h 03m
Length of Day
11h 10m
Waning Gibbous, 87% of the Moon is Illuminated
Oct 17
Waning Gibbous
Oct 21
Last Quarter
Oct 27
New
Nov 4
First Quarter
Nov 12
Full

Hourly Weather History & Observations

Time (EDT) Temp. Dew Point Humidity Pressure Visibility Wind Dir Wind Speed Gust Speed Precip Events Conditions
12:54 AM 51.1 °F 39.0 °F 63% 29.68 in 10.0 mi West 10.4 mph - N/A   Clear
1:54 AM 50.0 °F 37.9 °F 63% 29.68 in 10.0 mi WSW 15.0 mph - N/A   Clear
2:54 AM 50.0 °F 37.0 °F 61% 29.68 in 10.0 mi WSW 13.8 mph - N/A   Clear
3:54 AM 48.9 °F 37.9 °F 66% 29.69 in 10.0 mi WSW 12.7 mph - N/A   Clear
4:54 AM 50.0 °F 37.9 °F 63% 29.68 in 10.0 mi WSW 11.5 mph - N/A   Clear
5:54 AM 48.0 °F 37.9 °F 68% 29.69 in 10.0 mi WSW 16.1 mph - N/A   Clear
6:54 AM 48.0 °F 37.9 °F 68% 29.70 in 10.0 mi West 10.4 mph - N/A   Partly Cloudy
7:54 AM 50.0 °F 37.9 °F 63% 29.71 in 10.0 mi West 12.7 mph - N/A   Mostly Cloudy
8:54 AM 51.1 °F 37.9 °F 61% 29.73 in 10.0 mi West 9.2 mph - N/A   Mostly Cloudy
9:54 AM 52.0 °F 37.9 °F 59% 29.75 in 10.0 mi West 12.7 mph - N/A   Mostly Cloudy
10:54 AM 53.1 °F 41.0 °F 64% 29.77 in 10.0 mi SW 15.0 mph - N/A   Mostly Cloudy
11:54 AM 55.0 °F 37.9 °F 53% 29.78 in 10.0 mi West 17.3 mph - N/A   Mostly Cloudy
12:54 PM 55.9 °F 39.0 °F 53% 29.77 in 10.0 mi West 13.8 mph - N/A   Mostly Cloudy
1:54 PM 60.1 °F 37.9 °F 44% 29.76 in 10.0 mi West 18.4 mph 27.6 mph N/A   Mostly Cloudy
2:54 PM 63.0 °F 36.0 °F 37% 29.75 in 10.0 mi West 17.3 mph 27.6 mph N/A   Mostly Cloudy
3:54 PM 62.1 °F 35.1 °F 37% 29.74 in 10.0 mi West 21.9 mph 27.6 mph N/A   Mostly Cloudy
4:54 PM 64.0 °F 34.0 °F 33% 29.75 in 10.0 mi West 12.7 mph - N/A   Scattered Clouds
5:54 PM 62.1 °F 36.0 °F 38% 29.76 in 10.0 mi WSW 10.4 mph - N/A   Partly Cloudy
6:54 PM 57.9 °F 37.0 °F 46% 29.78 in 10.0 mi SSW 4.6 mph - N/A   Partly Cloudy
7:54 PM 55.9 °F 37.0 °F 49% 29.80 in 10.0 mi NW 6.9 mph - N/A   Scattered Clouds
8:54 PM 54.0 °F 35.1 °F 49% 29.83 in 10.0 mi NW 4.6 mph - N/A   Partly Cloudy
9:54 PM 53.1 °F 35.1 °F 50% 29.86 in 10.0 mi NW 8.1 mph - N/A   Clear
10:54 PM 53.1 °F 34.0 °F 48% 29.88 in 10.0 mi West 4.6 mph - N/A   Clear
11:54 PM 51.1 °F 36.0 °F 56% 29.89 in 10.0 mi West 8.1 mph - N/A   Clear